Location: Newark
(48.0000°N, 67.0000°E)
Time: 06:38:05
(UTC+00:00)

A-11 Canister half - All Passes

Search period start: 24 February 2020 00:00
Search period end: 05 March 2020 00:00
Orbit: 1517 x 1683 km, 47.2° (Epoch: 23 February)

Date Brightness Start Highest point End Pass type
(mag) Time Alt. Az. Time Alt. Az. Time Alt. Az.
24 Feb - 09:05:38 10° S 09:12:50 23° SE 09:19:54 10° E daylight
24 Feb - 11:06:36 10° SW 11:16:20 57° SSE 11:25:48 10° ENE daylight
24 Feb - 13:11:01 10° W 13:21:02 85° S 13:30:41 10° E daylight
24 Feb - 15:16:12 10° W 15:26:00 76° SSW 15:35:26 10° ESE visible
24 Feb - 17:21:26 10° WNW 17:30:04 39° SW 17:38:26 10° SSE visible
25 Feb - 08:43:06 10° S 08:50:01 21° SE 08:56:49 10° E daylight
25 Feb - 10:43:43 10° SW 10:53:26 55° SSE 11:02:53 10° ENE daylight
25 Feb - 12:48:02 10° WSW 12:58:05 85° S 13:07:46 10° E daylight
25 Feb - 14:53:14 10° W 15:03:05 77° SSW 15:12:33 10° ESE visible
25 Feb - 16:58:27 10° WNW 17:07:13 41° SW 17:15:44 10° SSE visible
25 Feb - 19:07:29 10° WSW 19:09:54 11° WSW 19:12:19 10° SW visible
26 Feb - 08:20:37 10° S 08:27:11 20° SE 08:33:41 10° E daylight
26 Feb - 10:20:53 10° SW 10:30:32 53° SSE 10:39:58 10° ENE daylight
26 Feb - 12:25:05 10° WSW 12:35:09 84° S 12:44:52 10° E daylight
26 Feb - 14:30:17 10° W 14:40:10 79° SSW 14:49:41 10° ESE visible
26 Feb - 16:35:29 10° WNW 16:44:23 43° SW 16:53:00 10° SSE visible
26 Feb - 18:43:41 10° W 18:47:09 12° WSW 18:50:35 10° SW visible
27 Feb - 07:58:10 10° SSE 08:04:23 18° SE 08:10:32 10° E daylight
27 Feb - 09:58:02 10° SW 10:07:39 51° SSE 10:17:02 10° ENE daylight
27 Feb - 12:02:07 10° WSW 12:12:12 83° S 12:21:57 10° E daylight
27 Feb - 14:07:19 10° W 14:17:15 80° SSW 14:26:48 10° ESE visible
27 Feb - 16:12:30 10° WNW 16:21:32 45° SW 16:30:16 10° SSE visible
27 Feb - 18:20:09 10° W 18:24:23 14° WSW 18:28:34 10° SSW visible
28 Feb - 07:35:46 10° SSE 07:41:35 17° SE 07:47:19 10° E daylight
28 Feb - 09:35:13 10° SW 09:44:46 49° SE 09:54:06 10° ENE daylight
28 Feb - 11:39:10 10° WSW 11:49:16 82° SSE 11:59:02 10° E daylight
28 Feb - 13:44:21 10° W 13:54:19 81° SSW 14:03:54 10° ESE visible
28 Feb - 15:49:32 10° WNW 15:58:41 47° SW 16:07:32 10° SE visible
28 Feb - 17:56:46 10° W 18:01:37 15° SW 18:06:25 10° SSW visible
29 Feb - 07:13:27 10° SSE 07:18:47 16° SE 07:24:03 10° E daylight
29 Feb - 09:12:24 10° SSW 09:21:53 47° SE 09:31:10 10° ENE daylight
29 Feb - 11:16:14 10° WSW 11:26:20 81° SSE 11:36:08 10° E daylight
29 Feb - 13:21:24 10° W 13:31:24 82° S 13:41:02 10° ESE daylight
29 Feb - 15:26:34 10° WNW 15:35:50 49° SW 15:44:46 10° SE visible
29 Feb - 17:33:28 10° W 17:38:51 17° SW 17:44:10 10° SSW visible
01 Mar - 06:51:13 10° SSE 06:55:59 14° ESE 07:00:42 10° E daylight
01 Mar - 08:49:37 10° SSW 08:59:00 45° SE 09:08:13 10° ENE daylight
01 Mar - 10:53:17 10° WSW 11:03:23 80° SSE 11:13:13 10° E daylight
01 Mar - 12:58:25 10° W 13:08:27 83° S 13:18:08 10° ESE daylight
01 Mar - 15:03:36 10° WNW 15:12:58 51° SSW 15:22:00 10° SE visible
01 Mar - 17:10:13 10° W 17:16:04 18° SW 17:21:49 10° SSW visible
02 Mar - 06:29:06 10° SSE 06:33:12 13° ESE 06:37:15 10° E daylight
02 Mar - 08:26:50 10° SSW 08:36:07 43° SE 08:45:16 10° ENE daylight
02 Mar - 10:30:20 10° WSW 10:40:28 78° SSE 10:50:18 10° E daylight
02 Mar - 12:35:27 10° W 12:45:31 84° S 12:55:14 10° ESE daylight
02 Mar - 14:40:37 10° WNW 14:50:05 54° SSW 14:59:13 10° SE visible
02 Mar - 16:47:01 10° W 16:53:17 20° SW 16:59:26 10° S visible
03 Mar - 06:07:11 10° SE 06:10:24 12° ESE 06:13:37 10° ESE daylight
03 Mar - 08:04:03 10° SSW 08:13:15 41° SE 08:22:19 10° ENE daylight
03 Mar - 10:07:24 10° WSW 10:17:31 77° SSE 10:27:23 10° E daylight
03 Mar - 12:12:29 10° W 12:22:35 85° S 12:32:20 10° E daylight
03 Mar - 14:17:39 10° WNW 14:27:13 56° SSW 14:36:25 10° SE visible
03 Mar - 16:23:52 10° W 16:30:30 21° SW 16:36:59 10° S visible
04 Mar - 05:45:41 10° SE 05:47:37 11° ESE 05:49:32 10° ESE daylight
04 Mar - 07:41:18 10° SSW 07:50:23 39° SE 07:59:21 10° ENE daylight
04 Mar - 09:44:28 10° WSW 09:54:35 75° SSE 10:04:28 10° E daylight
04 Mar - 11:49:31 10° W 11:59:38 86° S 12:09:25 10° E daylight
04 Mar - 13:54:41 10° WNW 14:04:21 58° SSW 14:13:37 10° SE visible
04 Mar - 16:00:44 10° W 16:07:42 23° SW 16:14:31 10° S visible
